Home > Weather > Bad Oldesloe > Past weeks

Flag for Germany Weather for the Past 2 Weeks in Bad Oldesloe, Schleswig-Holstein, Germany

Now
36 °F

Chilly.


Feels Like: 32 °F
Forecast: 42 / 51 °F
Wind: 5 mph from Southwest

Location: Hamburg-Fuhlsbuettel

Current Time: Apr 29, 2016 at 3:56:30 AM

Latest Report: Apr 29, 2016 at 3:20 AM


Visibility: N/A

Pressure: 29.95 "Hg

Humidity: 93%

Dew Point: 34 °F

Location of Bad OldesloeLocation

Historic Weather in Bad Oldesloe — Graph

°F

Bad Oldesloe Temperature Yesterday

Maximum temperature yesterday: 50 °F (at 3:50 PM)
Minimum temperature yesterday: 37 °F (at 4:50 AM)
Average temperature yesterday: 43 °F

High & Low Weather Summary for the Past Weeks

 TemperatureHumidityPressure
High57 °F (Apr 14, 3:20 PM)100% (Apr 14, 5:20 AM)30.42 "Hg (Apr 14, 5:20 AM)
Low32 °F (Apr 21, 4:20 AM)43% (Apr 23, 12:20 PM)29.39 "Hg (Apr 26, 3:20 AM)
Average44 °F79%29.85 "Hg
* Reported Apr 14 2:20 AM — Apr 29 2:20 AM, Bad Oldesloe, Weather by CustomWeather, © 2016

Note: Actual official high and low records may vary slightly from our data, if they occured in-between our weather recording intervals... More about our weather records

Advertising

Bad Oldesloe Weather History for the Previous 24 Hours

Scroll right to see more
 ConditionsComfort  
Time TempWeatherWind HumidityBarometerVisibility
2:20 AM
Fri, Apr 29
36 °FPassing clouds.6 mph93%29.95 "HgN/A
1:50 AM36 °FPassing clouds.6 mph87%29.95 "HgN/A
1:20 AM37 °FPassing clouds.6 mph93%29.95 "HgN/A
12:20 AM39 °FPassing clouds.8 mph87%29.95 "HgN/A
11:50 PM
Thu, Apr 28
41 °FPassing clouds.6 mph81%29.95 "HgN/A
11:20 PM41 °FSprinkles. Passing clouds.15 mph87%29.95 "HgN/A
10:50 PM43 °FPartly cloudy.5 mph76%29.95 "HgN/A
10:20 PM43 °FPartly cloudy.5 mph76%29.95 "HgN/A
9:50 PM43 °FPartly cloudy.5 mph76%29.95 "HgN/A
9:20 PM43 °FPartly sunny.6 mph71%29.95 "HgN/A
8:50 PM45 °FPartly sunny.3 mph66%29.95 "HgN/A
8:20 PM46 °FScattered clouds.6 mph62%29.95 "HgN/A
7:50 PM46 °FBroken clouds.6 mph62%29.92 "HgN/A
7:20 PM46 °FSprinkles. Scattered clouds.7 mph62%29.92 "HgN/A
6:50 PM46 °FScattered clouds.12 mph62%29.92 "HgN/A
6:20 PM48 °FScattered clouds.15 mph54%29.92 "HgN/A
5:50 PM50 °FScattered clouds.18 mph50%29.92 "HgN/A
5:20 PM48 °FScattered clouds.16 mph50%29.89 "HgN/A
4:50 PM50 °FPartly sunny.16 mph47%29.89 "HgN/A
4:20 PM50 °FPartly sunny.17 mph47%29.89 "HgN/A
3:50 PM50 °FPartly sunny.17 mph50%29.89 "HgN/A
3:20 PM48 °FScattered clouds.18 mph50%29.89 "HgN/A
2:20 PM48 °FPartly sunny.18 mph58%29.86 "HgN/A
1:20 PM48 °FScattered clouds.17 mph62%29.86 "HgN/A
12:50 PM46 °FScattered clouds.16 mph66%29.86 "HgN/A
12:20 PM45 °FScattered showers. Partly sunny.14 mph71%29.83 "HgN/A
11:50 AM45 °FScattered showers. Partly sunny.17 mph76%29.83 "HgN/A
11:20 AM45 °FScattered showers. Partly sunny.13 mph81%29.83 "HgN/A
10:20 AM43 °FBroken clouds.12 mph81%29.83 "HgN/A
9:50 AM43 °FBroken clouds.10 mph81%29.80 "HgN/A
9:20 AM41 °FBroken clouds.10 mph87%29.80 "HgN/A
7:50 AM39 °FPartly sunny.10 mph93%29.77 "HgN/A
7:20 AM39 °FPartly sunny.9 mph93%29.77 "HgN/A
6:50 AM39 °FPartly sunny.9 mph93%29.77 "HgN/A
5:50 AM37 °FPassing clouds.7 mph100%29.74 "HgN/A
5:20 AM37 °FPassing clouds.8 mph93%29.74 "HgN/A
4:50 AM37 °FPassing clouds.10 mph93%29.74 "HgN/A
4:20 AM39 °FPartly cloudy.9 mph93%29.74 "HgN/A
3:50 AM39 °FPassing clouds.8 mph93%29.71 "HgN/A
3:20 AM39 °FPassing clouds.8 mph93%29.71 "HgN/A
Weather by CustomWeather, © 2016

See weather overviewHow to use our weather pages